| time (UTC) | temp F | wind direction | speed MPH | gust MPH | rain 1hr in | rain 24hr in | rain mn in | humidity % | barometer mb |
| 20260508001519 | 59 | 257 | 1.0 | 11.0 | 0.00 | 0.00 | 0.00 | 39 | 1011.1 |
| 20260508000023 | 59 | 230 | 1.0 | 7.0 | 0.00 | 0.00 | 0.00 | 38 | 1010.6 |
| 20260507234528 | 60 | 282 | 3.0 | 9.0 | 0.00 | 0.00 | 0.00 | 38 | 1010.4 |
| 20260507233035 | 60 | 310 | 6.0 | 9.0 | 0.00 | 0.00 | 0.00 | 37 | 1010.3 |
| 20260507231514 | 61 | 125 | 0.0 | 7.0 | 0.00 | 0.00 | 0.00 | 39 | 1010.1 |
| 20260507230020 | 62 | 275 | 4.0 | 13.0 | 0.00 | 0.00 | 0.00 | 37 | 1009.9 |
| 20260507224522 | 63 | 289 | 7.0 | 13.0 | 0.00 | 0.00 | 0.00 | 35 | 1009.9 |
| 20260507223028 | 64 | 143 | 3.0 | 12.0 | 0.00 | 0.00 | 0.00 | 35 | 1009.7 |
| 20260507221528 | 64 | 292 | 11.0 | 17.0 | 0.00 | 0.00 | 0.00 | 33 | 1009.5 |
| 20260507220018 | 64 | 243 | 7.0 | 13.0 | 0.00 | 0.00 | 0.00 | 34 | 1009.2 |
| 20260507214525 | 65 | 11 | 3.0 | 15.0 | 0.00 | 0.00 | 0.00 | 35 | 1009.1 |
| 20260507213025 | 64 | 283 | 2.0 | 13.0 | 0.00 | 0.00 | 0.00 | 34 | 1008.9 |
| 20260507211528 | 64 | 298 | 2.0 | 7.0 | 0.00 | 0.00 | 0.00 | 34 | 1008.9 |
| 20260507210038 | 65 | 306 | 5.0 | 14.0 | 0.00 | 0.00 | 0.00 | 34 | 1008.8 |
| 20260507204526 | 65 | 217 | 1.0 | 14.0 | 0.00 | 0.00 | 0.00 | 36 | 1008.8 |
| 20260507203014 | 65 | 8 | 7.0 | 16.0 | 0.00 | 0.00 | 0.00 | 36 | 1008.6 |
| 20260507201512 | 65 | 203 | 8.0 | 17.0 | 0.00 | 0.00 | 0.00 | 35 | 1008.8 |
| 20260507200015 | 65 | 262 | 4.0 | 18.0 | 0.00 | 0.00 | 0.00 | 36 | 1009.0 |
| 20260507194517 | 66 | 276 | 3.0 | 8.0 | 0.00 | 0.00 | 0.00 | 35 | 1009.0 |
| 20260507193015 | 65 | 308 | 8.0 | 13.0 | 0.00 | 0.00 | 0.00 | 36 | 1009.1 |
| 20260507191514 | 65 | 89 | 1.0 | 16.0 | 0.00 | 0.00 | 0.00 | 38 | 1009.0 |
| 20260507190008 | 66 | 243 | 6.0 | 12.0 | 0.00 | 0.00 | 0.00 | 37 | 1009.0 |
| 20260507184517 | 64 | 105 | 2.0 | 16.0 | 0.00 | 0.00 | 0.00 | 37 | 1009.1 |
| 20260507183025 | 65 | 255 | 6.0 | 12.0 | 0.00 | 0.00 | 0.00 | 37 | 1009.2 |
| 20260507181517 | 66 | 151 | 3.0 | 11.0 | 0.00 | 0.00 | 0.00 | 38 | 1009.2 |
| 20260507180018 | 65 | 281 | 2.0 | 9.0 | 0.00 | 0.00 | 0.00 | 43 | 1009.2 |
| 20260507174528 | 65 | 132 | 4.0 | 11.0 | 0.00 | 0.00 | 0.00 | 44 | 1009.2 |
| 20260507173019 | 63 | 350 | 2.0 | 13.0 | 0.00 | 0.00 | 0.00 | 47 | 1009.7 |
| 20260507171517 | 63 | 343 | 3.0 | 17.0 | 0.00 | 0.00 | 0.00 | 44 | 1009.9 |
| 20260507170020 | 64 | 156 | 4.0 | 9.0 | 0.00 | 0.00 | 0.00 | 43 | 1010.3 |
| 20260507164521 | 62 | 169 | 3.0 | 8.0 | 0.00 | 0.00 | 0.00 | 48 | 1010.6 |
| 20260507163013 | 61 | 167 | 4.0 | 17.0 | 0.00 | 0.00 | 0.00 | 46 | 1010.9 |
| 20260507161516 | 61 | 256 | 5.0 | 10.0 | 0.00 | 0.00 | 0.00 | 48 | 1011.0 |
| 20260507160023 | 60 | 157 | 2.0 | 5.0 | 0.00 | 0.00 | 0.00 | 50 | 1011.2 |
| 20260507154530 | 59 | 217 | 0.0 | 4.0 | 0.00 | 0.00 | 0.00 | 51 | 1011.4 |
| 20260507153035 | 59 | 141 | 1.0 | 5.0 | 0.00 | 0.00 | 0.00 | 53 | 1011.7 |
| 20260507151515 | 58 | 95 | 0.0 | 1.0 | 0.00 | 0.00 | 0.00 | 54 | 1011.9 |
| 20260507150024 | 58 | 111 | 0.0 | 3.0 | 0.00 | 0.00 | 0.00 | 56 | 1012.2 |
| 20260507144523 | 57 | 124 | 1.0 | 3.0 | 0.00 | 0.00 | 0.00 | 58 | 1012.5 |
| 20260507143025 | 56 | 121 | 0.0 | 0.0 | 0.00 | 0.00 | 0.00 | 59 | 1012.8 |
| 20260507141521 | 55 | 136 | 0.0 | 3.0 | 0.00 | 0.00 | 0.00 | 64 | 1013.1 |
| 20260507140020 | 54 | 108 | 1.0 | 2.0 | 0.00 | 0.00 | 0.00 | 63 | 1013.2 |
| 20260507134523 | 54 | 82 | 0.0 | 1.0 | 0.00 | 0.00 | 0.00 | 64 | 1013.5 |
| 20260507133024 | 53 | 105 | 0.0 | 3.0 | 0.00 | 0.00 | 0.00 | 67 | 1013.6 |
| 20260507131524 | 53 | 343 | 0.0 | 0.0 | 0.00 | 0.00 | 0.00 | 68 | 1013.7 |
| 20260507130035 | 52 | 58 | 0.0 | 2.0 | 0.00 | 0.00 | 0.00 | 70 | 1013.8 |
| 20260507124527 | 52 | 76 | 0.0 | 5.0 | 0.00 | 0.01 | 0.00 | 70 | 1013.9 |
| 20260507123006 | 52 | 99 | 0.0 | 0.0 | 0.00 | 0.01 | 0.00 | 77 | 1013.7 |
| 20260507121509 | 51 | 99 | 0.0 | 0.0 | 0.00 | 0.02 | 0.00 | 78 | 1013.6 |
| 20260507120020 | 51 | 99 | 0.0 | 0.0 | 0.00 | 0.02 | 0.00 | 79 | 1013.5 |
| 20260507114516 | 51 | 98 | 0.0 | 0.0 | 0.00 | 0.02 | 0.00 | 80 | 1013.5 |
| 20260507113023 | 51 | 98 | 0.0 | 0.0 | 0.00 | 0.03 | 0.00 | 80 | 1013.3 |
| 20260507111507 | 51 | 86 | 0.0 | 2.0 | 0.00 | 0.05 | 0.00 | 80 | 1013.1 |
| 20260507110012 | 51 | 91 | 0.0 | 2.0 | 0.00 | 0.05 | 0.00 | 79 | 1013.1 |
| 20260507104518 | 51 | 68 | 0.0 | 1.0 | 0.00 | 0.05 | 0.00 | 79 | 1012.9 |
| 20260507103028 | 51 | 23 | 0.0 | 0.0 | 0.00 | 0.06 | 0.00 | 81 | 1012.6 |
| 20260507101503 | 51 | 23 | 0.0 | 0.0 | 0.00 | 0.06 | 0.00 | 80 | 1012.4 |
| 20260507100009 | 51 | 23 | 0.0 | 0.0 | 0.00 | 0.06 | 0.00 | 80 | 1012.2 |
| 20260507094516 | 51 | 23 | 0.0 | 0.0 | 0.00 | 0.06 | 0.00 | 79 | 1012.1 |
| 20260507093020 | 51 | 276 | 0.0 | 0.0 | 0.00 | 0.06 | 0.00 | 79 | 1012.1 |
| 20260507091527 | 51 | 276 | 0.0 | 0.0 | 0.00 | 0.06 | 0.00 | 78 | 1012.4 |
| 20260507090007 | 52 | 276 | 0.0 | 0.0 | 0.00 | 0.06 | 0.00 | 77 | 1012.2 |
| 20260507084518 | 52 | 276 | 0.0 | 0.0 | 0.00 | 0.06 | 0.00 | 76 | 1012.0 |
| 20260507083016 | 52 | 266 | 0.0 | 0.0 | 0.00 | 0.06 | 0.00 | 73 | 1012.4 |
| 20260507081523 | 53 | 356 | 2.0 | 4.0 | 0.00 | 0.06 | 0.00 | 71 | 1012.5 |
| 20260507080037 | 52 | 119 | 0.0 | 2.0 | 0.00 | 0.06 | 0.00 | 74 | 1012.3 |
| 20260507074511 | 53 | 6 | 0.0 | 0.0 | 0.00 | 0.06 | 0.00 | 74 | 1012.4 |
| 20260507073018 | 53 | 223 | 0.0 | 1.0 | 0.00 | 0.06 | 0.00 | 73 | 1012.1 |
| 20260507071553 | 53 | 295 | 0.0 | 1.0 | 0.00 | 0.06 | 0.00 | 71 | 1012.0 |
| 20260507070022 | 53 | 229 | 0.0 | 1.0 | 0.00 | 0.06 | 0.00 | 69 | 1012.1 |
| 20260507064527 | 54 | 148 | 0.0 | 4.0 | 0.00 | 0.06 | 0.00 | 71 | 1012.0 |
| 20260507063009 | 54 | 319 | 0.0 | 1.0 | 0.00 | 0.06 | 0.00 | 72 | 1012.1 |
| 20260507061518 | 54 | 237 | 0.0 | 0.0 | 0.00 | 0.06 | 0.00 | 81 | 1012.4 |
| 20260507060019 | 54 | 298 | 0.0 | 0.0 | 0.00 | 0.06 | 0.00 | 80 | 1012.4 |
| 20260507054528 | 54 | 37 | 0.0 | 0.0 | 0.00 | 0.06 | 0.00 | 81 | 1012.4 |
| 20260507053042 | 54 | 37 | 0.0 | 2.0 | 0.00 | 0.06 | 0.00 | 80 | 1012.5 |
| 20260507051527 | 54 | 277 | 0.0 | 5.0 | 0.00 | 0.06 | 0.00 | 81 | 1012.4 |
| 20260507050027 | 55 | 98 | 0.0 | 0.0 | 0.00 | 0.06 | 0.00 | 81 | 1012.2 |
| 20260507044527 | 55 | 84 | 0.0 | 4.0 | 0.00 | 0.06 | 0.00 | 80 | 1012.1 |
| 20260507043027 | 56 | 94 | 1.0 | 5.0 | 0.00 | 0.06 | 0.00 | 81 | 1011.9 |
| 20260507041530 | 56 | 94 | 0.0 | 0.0 | 0.00 | 0.06 | 0.00 | 80 | 1011.7 |
| 20260507040018 | 57 | 60 | 0.0 | 3.0 | 0.00 | 0.06 | 0.00 | 78 | 1012.0 |
| 20260507034532 | 58 | 110 | 0.0 | 4.0 | 0.00 | 0.06 | 0.06 | 76 | 1010.9 |
| 20260507033038 | 58 | 2 | 1.0 | 2.0 | 0.00 | 0.06 | 0.06 | 76 | 1012.2 |
| 20260507031509 | 58 | 34 | 0.0 | 2.0 | 0.00 | 0.06 | 0.06 | 76 | 1011.3 |
| 20260507030020 | 58 | 328 | 0.0 | 3.0 | 0.00 | 0.06 | 0.06 | 76 | 1011.8 |
| 20260507024523 | 59 | 247 | 0.0 | 2.0 | 0.00 | 0.06 | 0.06 | 75 | 1011.9 |
| 20260507023027 | 59 | 158 | 0.0 | 2.0 | 0.00 | 0.06 | 0.06 | 74 | 1011.5 |
| 20260507021526 | 60 | 34 | 0.0 | 0.0 | 0.00 | 0.06 | 0.06 | 75 | 1011.2 |
| 20260507020019 | 60 | 98 | 0.0 | 3.0 | 0.00 | 0.06 | 0.06 | 74 | 1011.0 |
| 20260507014518 | 61 | 342 | 1.0 | 4.0 | 0.00 | 0.06 | 0.06 | 72 | 1011.1 |
| 20260507013024 | 61 | 143 | 0.0 | 0.0 | 0.00 | 0.06 | 0.06 | 71 | 1010.3 |
| 20260507011528 | 61 | 247 | 1.0 | 2.0 | 0.00 | 0.06 | 0.06 | 70 | 1010.5 |
| 20260507010013 | 62 | 143 | 0.0 | 1.0 | 0.00 | 0.06 | 0.06 | 70 | 1010.6 |
| 20260507004511 | 62 | 281 | 1.0 | 4.0 | 0.00 | 0.06 | 0.06 | 70 | 1010.2 |
| 20260507003016 | 62 | 295 | 3.0 | 5.0 | 0.00 | 0.06 | 0.06 | 70 | 1010.2 |